TimeMST,TemperatureF,Dew PointF,Humidity,Sea Level PressureIn,VisibilityMPH,Wind Direction,Wind SpeedMPH,Gust SpeedMPH,PrecipitationIn,Events,Conditions,WindDirDegrees,DateUTC
12:15 AM,33.8,33.8,100,29.97,7.0,Calm,Calm,-,0.01,,Overcast,0,2012-11-18 07:15:00
12:35 AM,33.8,33.8,100,29.96,6.0,SSW,3.5,-,0.02,,Overcast,210,2012-11-18 07:35:00
12:55 AM,33.8,33.8,100,29.95,8.0,SE,4.6,-,0.02,,Mostly Cloudy,130,2012-11-18 07:55:00
1:15 AM,33.8,33.8,100,29.94,6.0,SE,3.5,-,N/A,,Overcast,140,2012-11-18 08:15:00
1:35 AM,33.8,33.8,100,29.94,5.0,Calm,Calm,-,0.02,,Overcast,0,2012-11-18 08:35:00
1:55 AM,33.8,33.8,100,29.94,6.0,South,4.6,-,0.04,,Overcast,170,2012-11-18 08:55:00
2:15 AM,33.8,33.8,100,29.94,4.0,SSW,8.1,-,0.06,,Overcast,200,2012-11-18 09:15:00
2:35 AM,33.8,33.8,100,29.94,7.0,SSW,4.6,-,0.09,,Overcast,210,2012-11-18 09:35:00
2:55 AM,33.8,33.8,100,29.94,10.0,South,4.6,-,0.09,,Overcast,180,2012-11-18 09:55:00
3:15 AM,33.8,32.0,93,29.93,8.0,SSE,4.6,-,N/A,,Overcast,160,2012-11-18 10:15:00
3:35 AM,33.8,33.8,100,29.92,5.0,SSW,9.2,-,0.01,,Overcast,210,2012-11-18 10:35:00
3:55 AM,35.6,35.6,100,29.91,7.0,SW,10.4,-,0.02,,Overcast,230,2012-11-18 10:55:00
4:15 AM,35.6,35.6,100,29.91,7.0,SW,8.1,-,0.01,,Overcast,230,2012-11-18 11:15:00
4:35 AM,35.6,35.6,100,29.90,7.0,SW,10.4,-,0.02,,Overcast,230,2012-11-18 11:35:00
5:15 AM,35.6,33.8,93,29.91,10.0,SSW,6.9,-,N/A,,Overcast,210,2012-11-18 12:15:00
5:35 AM,35.6,35.6,100,29.90,8.0,SW,9.2,-,N/A,,Overcast,230,2012-11-18 12:35:00
5:55 AM,35.6,35.6,100,29.92,7.0,SW,11.5,-,N/A,,Overcast,220,2012-11-18 12:55:00
6:15 AM,33.8,32.0,93,29.94,3.0,South,9.2,21.9,N/A,,Overcast,190,2012-11-18 13:15:00
6:35 AM,33.8,32.0,93,29.92,10.0,SSE,13.8,-,N/A,,Mostly Cloudy,150,2012-11-18 13:35:00
6:53 AM,33.8,32.0,93,29.92,8.0,SE,12.7,-,N/A,Rain-Snow,Light Snow,130,2012-11-18 13:53:00
6:55 AM,33.8,32.0,93,29.92,10.0,SE,13.8,-,0.10,,Mostly Cloudy,130,2012-11-18 13:55:00
7:55 AM,33.8,33.8,100,29.94,8.0,SSW,6.9,-,N/A,,Mostly Cloudy,210,2012-11-18 14:55:00
8:55 AM,35.6,35.6,100,29.96,8.0,SSW,9.2,-,N/A,,Mostly Cloudy,200,2012-11-18 15:55:00
9:53 AM,35.6,33.8,93,29.98,7.0,SW,9.2,-,N/A,,Overcast,230,2012-11-18 16:53:00
10:55 AM,35.6,35.6,100,30.00,6.0,South,8.1,-,N/A,,Overcast,170,2012-11-18 17:55:00
11:51 AM,35.6,35.6,100,29.99,6.0,WSW,6.9,-,N/A,,Overcast,240,2012-11-18 18:51:00
12:55 PM,37.4,35.6,93,30.01,6.0,South,9.2,-,N/A,Snow,Snow,190,2012-11-18 19:55:00
1:54 PM,37.4,35.6,93,30.01,10.0,SSW,5.8,-,N/A,Snow,Snow,200,2012-11-18 20:54:00
2:51 PM,37.4,33.8,87,30.03,5.0,South,9.2,-,N/A,Snow,Light Snow,170,2012-11-18 21:51:00
3:54 PM,35.6,33.8,93,30.05,10.0,South,6.9,-,N/A,Snow,Snow,180,2012-11-18 22:54:00
4:53 PM,33.8,33.8,100,30.07,10.0,SSW,6.9,-,N/A,,Mostly Cloudy,200,2012-11-18 23:53:00
5:55 PM,33.8,33.8,100,30.07,10.0,SSW,4.6,-,N/A,,Overcast,200,2012-11-19 00:55:00
6:59 PM,33.8,33.8,100,30.09,10.0,SSW,5.8,-,N/A,Snow,Light Snow,210,2012-11-19 01:59:00
7:55 PM,33.8,32.0,93,30.09,10.0,SSE,5.8,-,N/A,Snow,Light Snow,160,2012-11-19 02:55:00
8:52 PM,33.8,33.8,100,30.09,10.0,South,6.9,-,N/A,Snow,Light Snow,190,2012-11-19 03:52:00
8:55 PM,33.8,33.8,100,30.09,10.0,SSW,5.8,-,N/A,,Mostly Cloudy,200,2012-11-19 03:55:00
9:15 PM,33.8,33.8,100,30.09,8.0,SW,8.1,-,N/A,,Overcast,220,2012-11-19 04:15:00
9:36 PM,32.0,32.0,100,30.09,10.0,SW,10.4,-,N/A,,Mostly Cloudy,230,2012-11-19 04:36:00
9:55 PM,32.0,32.0,100,30.10,10.0,WSW,8.1,-,N/A,,Mostly Cloudy,240,2012-11-19 04:55:00
10:15 PM,33.8,33.8,100,30.10,10.0,SW,9.2,-,N/A,,Overcast,230,2012-11-19 05:15:00
10:55 PM,33.8,33.8,100,30.10,10.0,SW,10.4,16.1,N/A,,Clear,230,2012-11-19 05:55:00
11:35 PM,33.8,33.8,100,30.10,10.0,SSW,11.5,-,N/A,,Clear,210,2012-11-19 06:35:00
11:55 PM,33.8,32.0,93,30.12,10.0,SSW,9.2,-,N/A,,Clear,210,2012-11-19 06:55:00